OE3AJC-13 Weather Reports


time (UTC)temp
C
wind
direction
speed
KPH
gust
KPH
rain 1hr
cm
rain 24hr
cm
rain mn
cm
humidity
%
barometer
mb
20260507164403 17 241 3.2 4.8 0.00 0.00 0.00 47 1012.4
20260507163402 17 263 3.2 4.8 0.00 0.00 0.00 46 1012.1
20260507162401 17 245 1.6 4.8 0.00 0.00 0.00 45 1012.2
20260507161401 17 238 3.2 4.8 0.00 0.00 0.00 45 1012.1
20260507160400 17 241 0.0 1.6 0.00 0.00 0.00 45 1011.9
20260507155359 18 248 8.0 8.0 0.00 0.00 0.00 43 1012.0
20260507154358 17 263 6.4 8.0 0.00 0.00 0.00 46 1012.1
20260507153357 17 231 0.0 4.8 0.00 0.00 0.00 47 1011.8
20260507152357 17 256 9.7 12.9 0.00 0.00 0.00 45 1012.0
20260507151356 17 241 8.0 9.7 0.00 0.00 0.00 46 1012.1
20260507150355 17 244 3.2 4.8 0.00 0.00 0.00 45 1011.8
20260507145354 17 247 3.2 4.8 0.00 0.00 0.00 45 1012.0
20260507144354 17 249 4.8 4.8 0.00 0.00 0.00 45 1011.9
20260507143353 18 248 4.8 8.0 0.00 0.00 0.00 44 1011.8
20260507142352 18 251 6.4 8.0 0.00 0.00 0.00 43 1011.7
20260507141352 18 246 6.4 8.0 0.00 0.00 0.00 42 1011.9
20260507140351 18 243 4.8 6.4 0.00 0.00 0.00 45 1011.6
20260507135350 18 197 0.0 3.2 0.00 0.00 0.00 44 1011.7
20260507134349 18 251 11.3 14.5 0.00 0.00 0.00 43 1011.7
20260507133349 18 252 6.4 12.9 0.00 0.00 0.00 43 1011.9
20260507132348 18 254 3.2 8.0 0.00 0.00 0.00 43 1011.8
20260507131347 18 269 9.7 14.5 0.00 0.00 0.00 42 1011.9
20260507130346 19 260 8.0 12.9 0.00 0.00 0.00 42 1012.0
20260507125346 19 234 11.3 14.5 0.00 0.00 0.00 42 1011.7
20260507124345 18 254 6.4 9.7 0.00 0.00 0.00 42 1012.0
20260507123344 18 243 12.9 17.7 0.00 0.00 0.00 44 1011.9
20260507122343 18 225 1.6 3.2 0.00 0.00 0.00 42 1011.6
20260507121343 19 254 4.8 6.4 0.00 0.00 0.00 40 1012.0
20260507120342 18 263 9.7 14.5 0.00 0.00 0.00 43 1011.8
20260507115341 18 220 6.4 9.7 0.00 0.00 0.00 44 1011.8
20260507114341 20 263 4.8 12.9 0.00 0.00 0.00 40 1011.9
20260507113340 19 260 3.2 4.8 0.00 0.00 0.00 41 1011.9
20260507111338 18 228 0.0 3.2 0.00 0.00 0.00 44 1012.0
20260507110338 18 218 1.6 4.8 0.00 0.00 0.00 43 1012.0
20260507105337 18 261 3.2 4.8 0.00 0.00 0.00 44 1011.9
20260507104336 17 246 9.7 14.5 0.00 0.00 0.00 47 1012.1
20260507103335 18 248 4.8 6.4 0.00 0.00 0.00 47 1012.1
20260507102335 18 182 1.6 3.2 0.00 0.00 0.00 46 1012.1
20260507101334 17 240 1.6 3.2 0.00 0.00 0.00 48 1012.1
20260507100333 17 221 1.6 3.2 0.00 0.00 0.00 48 1012.3
20260507095332 17 252 1.6 4.8 0.00 0.00 0.00 51 1012.2
20260507094331 16 165 0.0 3.2 0.00 0.00 0.00 52 1012.0
20260507093331 18 228 1.6 3.2 0.00 0.00 0.00 47 1012.1
20260507092330 16 188 4.8 6.4 0.00 0.00 0.00 51 1012.2
20260507090329 16 234 1.6 3.2 0.00 0.00 0.00 51 1012.1
20260507085328 16 216 9.7 12.9 0.00 0.00 0.00 52 1012.1
20260507084327 16 229 3.2 6.4 0.00 0.00 0.00 53 1012.0
20260507083323 16 236 1.6 4.8 0.00 0.00 0.00 51 1011.7
20260507082323 15 260 9.7 16.1 0.00 0.00 0.00 55 1011.9
20260507081322 15 301 8.0 12.9 0.00 0.00 0.00 56 1011.6
20260507080321 15 243 4.8 8.0 0.00 0.00 0.00 58 1011.5
20260507075321 15 272 9.7 9.7 0.00 0.00 0.00 59 1011.3
20260507074320 15 268 6.4 9.7 0.00 0.00 0.00 58 1011.5
20260507073319 15 244 1.6 4.8 0.00 0.00 0.00 60 1011.3
20260507072318 13 246 0.0 0.0 0.00 0.00 0.00 63 1011.5
20260507071318 12 234 0.0 1.6 0.00 0.00 0.00 65 1011.5
20260507070317 12 250 3.2 4.8 0.00 0.00 0.00 64 1011.5
20260507065316 12 266 11.3 17.7 0.00 0.00 0.00 64 1011.5
20260507064316 13 257 8.0 14.5 0.00 0.00 0.00 64 1011.6
20260507063315 13 257 9.7 12.9 0.00 0.00 0.00 62 1011.5
20260507062314 13 259 4.8 8.0 0.00 0.00 0.00 63 1011.1
20260507061314 13 224 11.3 14.5 0.00 0.00 0.00 64 1011.2
20260507060313 13 188 0.0 1.6 0.00 0.00 0.00 65 1011.1
20260507055312 12 248 4.8 6.4 0.00 0.00 0.00 67 1010.8
20260507054312 12 162 1.6 3.2 0.00 0.00 0.00 68 1010.7
20260507053311 12 228 3.2 4.8 0.00 0.00 0.00 68 1010.8
20260507052310 12 112 4.8 12.9 0.00 0.00 0.00 69 1010.6
20260507051309 12 231 0.0 1.6 0.00 0.00 0.00 70 1010.5
20260507050309 11 246 3.2 4.8 0.00 0.00 0.00 71 1010.6
20260507045308 11 236 3.2 4.8 0.00 0.00 0.00 72 1010.5
20260507044307 11 243 1.6 3.2 0.00 0.00 0.00 73 1010.2
20260507043306 11 208 0.0 3.2 0.00 0.00 0.00 73 1010.3
20260507042307 11 230 0.0 0.0 0.00 0.00 0.00 73 1010.0
20260507041305 11 218 3.2 4.8 0.00 0.00 0.00 74 1009.8
20260507040304 11 215 0.0 4.8 0.00 0.00 0.00 74 1009.6
20260507035306 11 163 3.2 4.8 0.00 0.00 0.00 74 1009.6
20260507034303 11 233 1.6 3.2 0.00 0.00 0.00 74 1009.5
20260507033302 11 234 0.0 0.0 0.00 0.00 0.00 74 1009.5
20260507032305 11 141 3.2 4.8 0.00 0.00 0.00 73 1009.5
20260507031301 11 195 3.2 4.8 0.00 0.00 0.00 74 1009.5
20260507030300 11 219 0.0 1.6 0.00 0.00 0.00 74 1009.4
20260507025259 11 185 1.6 3.2 0.00 0.00 0.00 74 1009.2
20260507024258 11 241 0.0 1.6 0.00 0.00 0.00 75 1009.1
20260507023258 11 231 0.0 0.0 0.00 0.00 0.00 75 1009.2
20260507022257 11 227 0.0 0.0 0.00 0.00 0.00 75 1009.0
20260507021256 11 231 1.6 3.2 0.00 0.00 0.00 75 1009.0
20260507020256 11 224 0.0 0.0 0.00 0.00 0.00 75 1009.2
20260507015255 11 237 3.2 4.8 0.00 0.00 0.00 75 1008.8
20260507014254 11 234 0.0 1.6 0.00 0.00 0.00 76 1008.7
20260507013254 12 232 0.0 1.6 0.00 0.00 0.00 75 1008.7
20260507012253 12 240 4.8 8.0 0.00 0.00 0.00 75 1008.7
20260507010251 12 232 3.2 3.2 0.00 0.00 0.00 76 1008.7
20260507005250 12 248 3.2 6.4 0.00 0.00 0.00 76 1008.7
20260507004250 12 228 0.0 0.0 0.00 0.00 0.00 76 1008.3
20260507003249 12 236 1.6 4.8 0.00 0.00 0.00 76 1008.4
20260507002248 12 237 0.0 1.6 0.00 0.00 0.00 75 1008.4
20260507001247 12 226 0.0 0.0 0.00 0.00 0.00 75 1008.2
20260507000247 12 263 1.6 4.8 0.00 0.00 0.00 75 1008.2
20260506235246 12 238 3.2 4.8 0.00 0.00 0.00 74 1008.0
20260506234245 12 258 3.2 6.4 0.00 0.00 0.00 75 1008.0
20260506233245 12 231 0.0 0.0 0.00 0.00 0.00 74 1007.9
20260506232244 13 235 0.0 0.0 0.00 0.00 0.00 74 1007.9
20260506231243 13 231 0.0 0.0 0.00 0.00 0.00 73 1008.0
20260506225241 13 220 0.0 3.2 0.00 0.00 0.00 73 1007.5
20260506224241 13 258 11.3 16.1 0.00 0.00 0.00 73 1007.6
20260506223240 13 247 6.4 8.0 0.00 0.00 0.00 74 1007.5
20260506222239 13 232 4.8 4.8 0.00 0.00 0.00 74 1007.4
20260506221239 13 253 4.8 6.4 0.00 0.00 0.00 75 1007.2
20260506220238 13 243 3.2 4.8 0.00 0.00 0.00 74 1006.4
20260506215237 13 244 1.6 3.2 0.00 0.00 0.00 73 1006.7
20260506214237 13 223 3.2 4.8 0.00 0.00 0.00 72 1006.2
20260506213236 14 232 0.0 0.0 0.00 0.00 0.00 71 1005.9
20260506212235 14 248 4.8 6.4 0.00 0.00 0.00 71 1006.0
20260506211234 15 229 1.6 3.2 0.00 0.00 0.00 70 1005.8
20260506210231 15 253 8.0 9.7 0.00 0.00 0.00 70 1005.7
20260506205230 15 241 9.7 9.7 0.00 0.00 0.00 69 1005.7
20260506204229 15 251 4.8 6.4 0.00 0.00 0.00 68 1005.8
20260506203228 15 270 14.5 19.3 0.00 0.00 0.00 68 1005.5
20260506202228 15 259 11.3 16.1 0.00 0.00 0.00 68 1005.4
20260506201227 15 246 12.9 22.5 0.00 0.00 0.00 67 1005.4
20260506200226 16 250 16.1 20.9 0.00 0.00 0.00 64 1005.6
20260506195226 16 265 9.7 17.7 0.00 0.00 0.00 56 1005.2
20260506194225 16 224 3.2 3.2 0.00 0.00 0.00 52 1004.5
20260506193224 17 190 3.2 4.8 0.00 0.00 0.00 50 1004.1
20260506192223 17 207 1.6 1.6 0.00 0.00 0.00 49 1004.1
20260506191223 17 207 0.0 1.6 0.00 0.00 0.00 49 1004.0
20260506190222 17 225 0.0 0.0 0.00 0.00 0.00 51 1003.7
20260506185221 20 231 0.0 0.0 0.00 0.00 0.00 44 1003.4
20260506184221 20 173 3.2 4.8 0.00 0.00 0.00 40 1003.3
20260506183220 20 182 3.2 6.4 0.00 0.00 0.00 40 1002.8
20260506182219 20 214 1.6 3.2 0.00 0.00 0.00 41 1002.6
20260506181215 20 160 1.6 3.2 0.00 0.00 0.00 41 1002.5
20260506180215 20 193 3.2 4.8 0.00 0.00 0.00 41 1003.0
20260506175214 21 194 1.6 3.2 0.00 0.00 0.00 42 1002.7
20260506174213 21 192 3.2 4.8 0.00 0.00 0.00 41 1002.6
20260506173212 21 182 4.8 6.4 0.00 0.00 0.00 40 1002.6
20260506172212 22 188 3.2 4.8 0.00 0.00 0.00 40 1002.5
20260506171211 23 139 6.4 9.7 0.00 0.00 0.00 36 1002.5
20260506170210 23 191 4.8 6.4 0.00 0.00 0.00 37 1002.7
20260506165210 23 156 1.6 6.4 0.00 0.00 0.00 37 1002.5